Home > Weather > New York > Past weeks

Flag for USA Past Weather in New York, New York, USA — Yesterday and Last 2 Weeks

Now
65 °F

Clear.


Feels Like: 65 °F
Forecast: 66 / 83 °F
Wind: 3 mph from Northeast

Location: New York City - Central Park

Current Time: Jun 25, 2016 at 6:30:22 AM

Latest Report: Jun 25, 2016 at 5:51 AM


Visibility: 7 mi

Pressure: 30.16 "Hg

Humidity: 81%

Dew Point: 59 °F

Location of New YorkLocation

Past Weather in New York — Graph

°F

New York Temperature Yesterday

Maximum temperature yesterday: 83 °F (at 1:51 PM)
Minimum temperature yesterday: 69 °F (at 4:51 AM)
Average temperature yesterday: 74 °F

High & Low Weather Summary for the Past Weeks

 TemperatureHumidityPressure
High87 °F (Jun 11, 6:51 PM)93% (Jun 16, 6:51 AM)30.31 "Hg (Jun 16, 6:51 AM)
Low57 °F (Jun 10, 5:51 AM)22% (Jun 12, 10:51 AM)29.60 "Hg (Jun 12, 1:51 PM)
Average73 °F51%29.93 "Hg
* Reported Jun 10 4:51 AM — Jun 25 4:51 AM, New York, Weather by CustomWeather, © 2016

Note: Actual official high and low records may vary slightly from our data, if they occured in-between our weather recording intervals... More about our weather records

Advertising

New York Weather History for the Previous 24 Hours

Scroll right to see more
 ConditionsComfort  
Time TempWeatherWind HumidityBarometerVisibility
4:51 AM
Sat, Jun 25
65 °FClear.3 mph81%30.14 "Hg9 mi
3:51 AM66 °FClear.No wind75%30.13 "Hg10 mi
2:51 AM67 °FClear.5 mph73%30.11 "Hg10 mi
1:51 AM67 °FClear.3 mph71%30.12 "Hg10 mi
12:51 AM68 °FClear.7 mph68%30.11 "Hg10 mi
11:51 PM
Fri, Jun 24
69 °FPassing clouds.7 mph68%30.11 "Hg9 mi
10:51 PM71 °FPassing clouds.5 mph66%30.11 "Hg9 mi
9:51 PM70 °FClear.3 mph68%30.11 "Hg9 mi
8:51 PM71 °FSunny.No wind63%30.09 "Hg9 mi
7:51 PM73 °FSunny.3 mph59%30.08 "Hg9 mi
6:51 PM76 °FSunny.5 mph50%30.07 "Hg9 mi
5:51 PM77 °FSunny.6 mph48%30.06 "Hg9 mi
4:51 PM80 °FSunny.N/A42%30.06 "Hg9 mi
3:51 PM82 °FSunny.5 mph40%30.06 "Hg9 mi
2:51 PM83 °FSunny.N/A38%30.05 "Hg10 mi
1:51 PM83 °FSunny.8 mph37%30.04 "Hg10 mi
12:51 PM82 °FSunny.8 mph38%30.04 "Hg10 mi
11:51 AM79 °FSunny.12 mph39%30.05 "Hg10 mi
10:51 AM76 °FSunny.7 mph42%30.05 "Hg10 mi
9:51 AM73 °FSunny.14 mph48%30.04 "Hg10 mi
8:51 AM72 °FSunny.12 mph46%30.02 "Hg10 mi
7:51 AM72 °FSunny.10 mph48%29.99 "Hg10 mi
6:51 AM70 °FSunny.7 mph53%29.97 "Hg10 mi
Weather by CustomWeather, © 2016

See weather overviewHow to use our weather pages